Theta_e
307 310 309 309 308 308 308 308 307 307 306 307 307 306 306 304 305 302 297 296 294 294 293 293 292 291 291 291 291 290 290 288 289 290 289 288 288 288 288 290 291 291 290 287 285 285 284 284 284 284 286 288 286 285 286 287 288 290 290 289 288 289 288 285 283 283 284 286 286 285 286 286 284 283 284 285 285 286 288 287 287 286 286 287 287
307 307 308 308 308 308 307 307 307 307 307 306 305 304 303 302 299 297 297 291 294 293 292 290 289 290 291 290 290 290 291 292 290 291 292 292 291 293 291 291 289 285 284 285 285 285 285 285 284 285 286 286 286 286 285 284 286 287 287 287 287 287 287 285 284 283 282 284 283 283 283 284 283 284 283 284 284 285 285 285 286 286 286 286 286
306 307 307 307 307 307 306 305 305 305 304 302 301 300 298 297 297 297 294 291 290 292 290 289 290 290 291 292 293 294 294 292 292 293 293 292 291 288 287 286 284 284 284 284 285 284 284 284 284 285 286 285 284 283 283 283 284 285 286 286 285 286 286 286 284 282 282 282 283 282 282 282 282 283 284 284 284 285 284 284 284 285 285 285 285
305 306 306 305 304 303 303 302 302 301 301 298 297 295 295 295 295 295 292 291 290 288 289 289 290 292 292 291 291 291 290 290 290 290 290 289 287 285 285 285 285 285 284 284 284 284 283 284 283 284 284 283 282 281 281 282 283 283 282 283 285 285 285 285 285 283 282 281 282 281 282 282 282 282 283 284 283 283 283 283 284 284 284 284 284
303 303 303 301 301 301 300 300 300 299 297 295 293 292 293 293 293 293 291 291 290 289 288 290 290 291 290 289 288 288 287 288 288 286 286 285 285 285 285 284 284 283 283 284 284 284 283 283 283 283 283 282 281 281 281 280 281 281 280 280 281 282 284 284 283 284 282 281 281 282 283 282 282 282 282 282 282 282 283 282 282 283 283 283 284
301 301 300 300 299 298 298 298 298 296 293 292 292 292 292 292 292 291 292 290 288 288 288 289 289 288 287 286 286 286 286 286 286 285 285 284 284 284 284 283 283 283 283 282 283 283 283 283 283 283 282 281 281 281 281 281 280 280 280 280 280 280 280 280 280 282 282 281 281 281 282 281 281 281 280 281 281 280 281 282 282 282 282 281 282
298 299 299 298 297 296 296 296 295 293 292 291 291 291 291 291 291 290 289 289 287 286 286 286 286 286 286 286 286 286 285 285 284 284 284 284 284 283 283 282 282 282 283 283 283 283 283 283 282 282 282 281 281 281 281 280 280 280 280 280 280 280 280 280 281 281 282 281 281 281 281 281 280 279 281 282 281 280 279 279 279 281 281 281 280
298 298 297 296 295 293 292 292 292 292 291 290 290 290 290 290 290 288 288 288 288 287 287 286 285 285 285 285 285 285 285 284 284 284 284 284 283 283 283 284 284 283 283 283 283 282 282 282 282 282 282 282 281 281 280 280 280 280 280 280 280 280 280 280 281 282 281 281 281 280 280 280 280 280 281 280 279 279 280 279 278 278 279 281 281
296 296 295 295 292 291 290 290 290 290 290 290 290 289 289 288 287 287 287 287 287 287 287 286 286 285 285 285 285 285 286 285 285 285 284 283 283 284 284 284 283 283 283 282 282 281 281 281 281 281 282 283 285 285 285 284 281 280 281 280 280 281 281 281 281 281 281 281 280 280 279 279 279 278 278 278 277 277 279 280 279 279 280 280 281
295 294 294 292 290 290 290 290 290 290 290 290 289 288 288 287 286 287 286 286 286 286 286 286 286 285 285 284 284 285 285 285 286 287 287 285 284 284 283 283 283 282 282 282 281 281 281 280 281 282 282 283 283 284 284 285 285 284 283 283 282 281 281 280 280 280 280 279 279 279 278 278 278 278 278 278 279 279 279 279 278 279 280 280 281
293 293 293 290 290 289 289 289 289 290 290 289 288 287 287 287 287 286 285 285 286 285 285 285 284 284 284 284 285 285 286 287 289 291 290 288 285 284 283 282 282 282 281 281 281 280 280 280 279 280 280 281 279 283 283 284 284 284 284 284 283 282 280 280 280 281 279 279 279 279 279 278 278 279 278 279 279 279 279 279 279 279 278 277 276
292 292 291 289 289 289 289 289 289 289 288 288 287 286 286 286 286 286 285 285 284 284 284 284 284 283 284 284 285 285 286 289 291 290 289 288 286 283 283 282 282 282 282 281 281 280 279 279 278 278 279 279 279 279 281 283 284 284 284 283 283 283 284 282 280 279 279 278 278 278 278 278 278 279 279 279 279 279 280 279 279 279 278 277 277
292 291 289 289 289 289 289 289 289 288 287 287 286 286 286 286 285 285 285 284 284 284 283 283 283 283 283 284 284 285 287 291 291 290 289 288 287 284 283 283 282 282 282 281 280 280 279 279 278 278 278 280 279 280 280 281 283 283 283 282 282 283 283 283 284 281 280 279 278 278 279 279 278 279 280 280 281 279 279 279 279 278 278 277 277
291 289 288 289 289 288 288 288 287 287 286 286 285 285 286 286 285 285 284 283 283 283 282 282 282 282 283 284 284 285 286 289 290 289 288 288 287 284 282 282 282 282 281 280 280 279 279 278 277 277 277 278 278 280 281 282 282 282 281 281 281 282 282 282 282 282 281 280 280 279 280 280 279 279 280 281 280 279 278 277 278 278 278 277 278
289 288 288 287 287 287 287 287 286 285 285 285 285 285 285 284 284 283 283 283 283 282 282 281 281 282 282 283 284 285 286 289 289 289 288 287 286 284 282 281 281 280 280 280 280 279 277 278 277 277 277 277 279 282 282 282 281 281 280 280 281 280 278 277 277 278 280 281 281 280 280 280 280 280 281 281 280 279 279 278 279 279 279 280 279
288 287 287 286 286 286 287 286 286 285 285 284 285 284 284 284 283 282 282 282 282 282 281 281 281 281 282 283 284 284 286 288 288 287 287 286 284 281 281 280 280 280 279 279 279 278 277 277 276 276 277 278 280 283 283 282 281 280 279 280 278 277 277 280 282 283 282 282 282 281 280 281 282 281 281 280 280 280 280 280 279 278 277 276 275
287 287 287 286 286 286 286 286 285 285 284 284 284 284 283 282 282 282 281 281 281 281 281 280 280 280 281 282 283 283 284 286 286 286 285 284 282 280 279 279 278 278 278 278 278 278 277 276 276 276 277 278 281 283 284 283 280 279 278 274 274 275 277 279 282 283 282 282 282 282 282 282 282 282 282 282 281 280 278 276 275 276 275 273 273
287 287 287 286 286 286 286 286 285 284 284 284 284 283 283 282 281 281 281 281 280 280 280 279 279 280 280 281 282 282 283 284 285 285 284 283 281 279 278 277 277 276 276 277 276 275 276 278 278 277 278 279 282 283 283 282 277 276 274 272 272 274 277 279 278 277 279 279 279 279 280 280 280 280 280 281 281 280 276 273 275 276 273 273 272
287 287 287 286 286 286 286 286 285 285 284 285 284 283 282 282 281 281 281 281 280 279 279 279 278 278 279 280 281 282 282 284 285 284 283 282 279 278 277 276 275 275 276 275 274 273 274 276 278 279 280 281 282 282 282 281 278 275 272 273 274 275 277 276 274 272 270 271 272 274 274 276 276 275 276 279 279 278 277 276 276 275 272 272 272
287 287 286 285 285 285 285 285 285 285 284 283 283 282 281 280 280 280 280 280 279 279 279 279 278 277 277 278 279 280 281 282 283 284 283 282 280 277 276 276 275 275 276 275 271 271 273 274 277 279 281 281 281 282 281 282 278 275 272 271 274 274 276 272 272 272 271 271 272 272 273 273 273 274 274 275 276 276 277 276 275 274 273 272 273
285 285 285 284 284 283 283 284 284 283 283 282 282 280 280 280 280 280 279 279 279 278 278 277 277 276 277 277 277 278 279 281 282 284 283 282 281 279 277 277 276 275 273 271 270 270 272 275 276 278 280 281 280 281 281 280 280 275 273 272 275 277 277 270 270 273 271 271 271 271 271 271 271 271 272 273 274 275 274 274 273 274 273 272 271
284 284 284 283 282 282 282 282 282 282 281 280 280 279 279 280 280 279 279 279 278 277 277 276 276 276 275 276 276 277 278 280 281 283 283 282 281 280 278 278 277 275 272 270 270 271 274 276 276 278 280 280 279 280 280 280 279 274 275 278 278 277 273 270 269 270 270 270 269 269 269 268 268 269 271 272 273 273 272 272 272 273 273 273 272
283 283 282 281 281 280 280 280 280 280 280 280 280 279 278 279 279 279 279 278 278 277 276 276 275 275 275 275 276 276 277 278 280 280 282 282 282 281 280 280 280 276 273 271 272 273 276 276 277 278 279 279 279 279 279 278 276 276 277 277 276 275 273 268 270 270 269 268 268 267 267 267 267 268 270 271 271 271 271 271 272 272 272 272 273
282 281 280 279 279 279 279 279 279 279 279 279 279 278 278 278 278 279 279 279 278 277 276 275 275 274 274 274 275 275 276 276 279 280 280 282 281 281 281 281 279 276 274 271 273 276 276 276 276 278 278 278 278 278 277 276 275 276 275 275 273 272 269 269 269 268 268 267 267 266 266 267 268 269 270 270 270 270 270 271 271 271 271 271 272
280 279 279 278 278 277 277 277 278 278 278 279 278 278 278 278 278 278 278 278 278 277 276 275 275 275 275 274 274 275 274 275 276 278 280 280 281 280 280 280 280 279 275 273 275 276 277 278 278 277 277 276 276 275 273 274 274 274 273 272 270 266 267 268 268 267 266 266 266 266 265 267 268 269 270 270 270 270 269 269 269 270 270 271 271
278 278 277 277 277 276 276 276 276 277 278 279 279 279 278 278 278 277 278 278 278 277 276 275 275 275 274 274 273 273 274 274 275 276 278 278 279 279 279 278 278 278 277 275 276 277 277 276 276 275 274 273 270 268 268 268 272 271 270 269 265 265 266 265 265 266 265 266 265 264 265 267 268 268 269 269 267 266 267 267 267 267 268 269 269
277 276 276 276 275 276 276 276 276 276 277 277 277 278 278 278 278 277 277 277 277 277 276 275 274 274 273 273 273 272 272 273 274 275 276 275 275 276 276 276 277 276 273 274 273 269 272 272 272 273 272 273 271 271 269 269 266 265 264 263 263 263 264 264 264 265 265 265 264 264 265 267 267 267 265 265 265 266 267 267 266 266 268 268 268
277 277 276 275 275 276 276 275 275 275 275 276 276 276 276 277 277 277 277 277 277 276 276 275 274 274 274 273 272 271 271 272 273 273 275 274 274 274 274 273 272 271 271 272 268 268 265 271 269 266 265 263 263 260 260 262 263 263 261 260 261 264 267 268 267 265 265 265 264 265 265 265 264 264 264 264 264 264 266 265 266 266 267 268 267
275 273 273 273 273 274 274 274 274 274 274 273 272 272 276 276 276 276 274 273 276 278 277 276 276 276 275 273 271 270 271 271 272 276 275 276 274 273 273 273 272 271 273 272 265 264 262 261 260 261 260 261 260 259 259 259 260 260 259 259 258 260 260 261 261 262 263 263 262 263 264 264 263 263 263 263 263 263 264 264 265 265 266 267 267
273 273 272 273 272 272 272 272 272 272 273 273 272 269 274 276 275 275 274 275 277 277 278 275 274 274 273 273 273 272 272 273 276 278 278 278 277 277 276 276 275 273 274 275 267 259 258 258 258 258 258 257 257 258 259 258 258 257 257 263 261 259 260 261 262 262 262 262 263 263 263 263 262 262 262 262 262 262 264 265 263 265 265 265 265
273 272 272 272 272 272 272 272 272 272 272 272 272 272 272 274 277 277 276 276 277 277 278 277 277 276 273 271 273 275 275 277 278 279 278 279 278 278 277 277 277 276 276 269 260 259 258 258 258 258 258 256 258 257 259 258 258 257 257 257 258 259 261 260 261 262 261 262 263 264 263 263 262 262 261 261 261 261 261 263 263 264 264 265 265
274 273 272 272 272 272 271 272 271 271 271 272 272 272 273 272 273 277 277 277 278 278 278 278 278 277 276 274 272 272 277 279 279 279 279 279 278 278 277 277 277 276 276 273 260 258 257 257 257 256 256 256 258 258 258 256 256 256 256 256 257 258 259 258 261 260 260 260 262 263 262 262 262 261 261 260 261 260 260 260 261 262 263 264 265
273 271 271 271 271 271 271 271 271 271 271 271 271 272 273 273 273 273 276 279 279 279 279 278 278 277 277 276 276 276 277 279 279 279 278 278 278 277 276 276 276 275 275 264 259 259 256 256 256 256 256 255 254 254 255 256 255 255 256 256 256 256 258 259 261 259 260 261 262 262 262 261 261 261 260 260 259 258 259 260 260 261 262 263 264
270 270 270 270 270 270 270 270 270 270 271 272 272 273 274 274 275 274 273 273 274 277 279 279 278 278 278 277 277 278 278 278 278 278 278 277 277 277 276 274 275 274 269 259 258 258 257 256 256 256 254 254 254 255 256 255 256 255 255 256 256 256 257 258 257 257 259 261 261 261 261 260 260 258 258 258 258 258 258 259 260 260 260 262 263
268 270 270 271 271 271 271 271 271 271 272 272 272 272 272 271 272 273 273 273 272 272 272 274 277 278 277 277 278 278 278 278 278 278 277 277 277 276 275 270 267 262 262 259 259 257 258 258 257 256 254 254 254 255 254 254 254 254 254 255 255 255 256 256 256 257 258 259 259 259 260 260 258 258 258 257 257 257 257 258 259 260 260 261 263
270 271 271 271 272 272 272 272 272 271 271 271 271 271 270 270 271 272 272 271 271 271 270 271 272 276 278 277 278 278 278 278 278 277 276 277 276 276 267 264 263 261 260 260 259 257 256 255 254 254 253 253 253 253 253 253 254 254 253 254 256 255 254 254 256 257 258 257 258 259 260 258 257 257 256 257 257 257 257 258 258 260 261 261 263
268 268 269 270 271 271 271 270 270 270 270 268 268 268 268 268 269 269 270 270 269 268 268 268 267 267 272 272 275 277 278 277 277 277 276 276 276 271 265 263 263 262 261 259 257 256 255 255 255 253 253 253 253 253 253 253 253 253 256 254 252 252 252 254 257 258 255 255 256 257 257 257 256 255 256 256 257 257 257 258 258 260 261 262 263
270 270 269 268 268 268 267 267 267 268 267 266 266 267 267 267 267 267 268 268 268 267 266 266 268 269 269 269 273 273 274 276 276 275 275 275 271 265 263 261 260 260 260 258 257 257 256 255 252 253 253 252 253 252 252 252 252 251 252 251 253 253 258 257 257 255 255 254 255 255 257 257 256 256 257 256 256 256 257 257 258 258 259 261 262
267 268 269 269 268 265 265 264 265 266 265 265 266 266 266 267 267 267 267 267 267 266 266 266 266 268 269 269 268 269 271 271 271 269 268 268 263 262 261 260 259 258 257 257 257 257 255 254 253 252 252 251 253 252 252 253 251 251 251 251 252 251 253 251 251 252 253 253 254 255 255 256 256 256 257 256 256 256 256 257 257 258 258 259 260
265 264 266 268 266 266 265 265 265 265 266 266 266 266 266 266 267 267 267 267 267 267 266 266 266 267 268 267 266 267 268 268 269 267 265 263 262 260 259 260 259 259 258 257 256 255 254 253 252 252 253 252 252 253 251 252 251 252 251 251 251 251 252 251 251 251 251 252 253 254 254 254 255 256 256 255 255 256 256 256 257 257 258 259 260
262 263 264 266 265 264 264 264 264 265 266 266 266 265 266 266 267 266 266 266 267 267 267 267 267 268 267 266 268 268 268 268 267 265 264 263 262 261 260 259 259 258 257 256 255 254 254 253 251 252 251 251 251 251 251 251 251 251 251 252 252 253 252 251 251 251 251 252 252 253 253 254 255 256 256 256 258 258 256 257 256 256 257 258 260
262 261 261 263 264 263 263 264 264 265 265 265 265 265 265 265 265 266 266 266 266 267 267 267 267 266 266 267 268 269 267 266 266 264 263 262 261 261 260 259 259 258 257 256 255 255 254 253 253 252 252 252 252 250 251 250 250 250 250 250 251 251 251 251 251 250 251 251 251 252 252 254 256 257 258 259 256 255 255 255 255 256 257 258 259
262 262 263 263 263 264 264 264 264 263 263 263 264 265 265 265 265 266 266 266 266 266 267 266 266 264 264 267 267 268 267 265 263 263 263 262 262 261 260 259 258 258 257 257 257 256 255 254 253 253 253 254 252 252 253 253 251 250 250 250 251 251 251 251 251 251 250 250 250 252 253 253 255 255 256 256 256 255 255 255 255 255 256 257 258
262 262 262 263 263 263 263 263 263 263 263 264 264 264 264 264 264 264 265 265 265 265 265 266 265 263 262 265 266 266 266 265 263 262 262 261 261 260 259 259 258 257 256 255 255 254 253 252 252 253 252 252 252 250 252 251 251 250 250 250 251 252 251 250 251 249 249 249 251 252 252 253 254 254 255 256 255 255 255 255 255 255 256 257 258
260 261 261 261 262 261 261 262 262 262 263 263 263 263 263 263 263 264 264 264 264 264 264 264 264 263 262 263 264 265 265 265 263 263 262 262 261 260 260 258 257 256 256 255 254 253 251 252 253 252 253 253 252 252 252 252 250 250 251 251 250 251 252 251 251 250 250 250 252 253 253 253 252 253 254 256 257 255 255 254 255 256 256 256 257
260 260 261 261 261 261 261 261 261 261 261 262 262 262 262 262 263 263 263 264 264 264 264 264 263 263 262 262 263 263 264 264 262 262 262 261 261 260 259 258 257 256 256 256 255 254 254 253 253 253 254 253 253 252 252 250 250 250 250 249 251 251 252 251 250 250 250 250 251 251 252 253 253 254 256 256 257 256 254 254 255 255 255 256 256
259 260 261 261 261 261 261 261 261 261 261 261 261 261 262 262 263 263 263 263 264 263 263 263 263 262 262 262 262 262 262 262 261 261 261 260 260 259 259 258 257 256 256 256 255 255 254 254 254 253 253 253 252 252 252 251 248 249 249 250 250 251 249 249 250 250 250 250 251 250 252 252 253 254 255 256 256 255 254 254 254 254 255 255 256
259 260 261 261 261 261 261 262 262 262 262 262 261 262 262 262 263 263 263 263 263 263 263 263 262 262 262 262 262 261 261 261 261 260 260 260 259 259 258 257 257 257 256 256 255 254 254 254 253 253 253 253 253 253 252 251 249 249 248 249 249 249 251 252 250 250 249 249 250 251 252 252 253 255 256 256 255 254 253 253 254 254 254 255 256
260 260 260 261 261 261 261 261 262 262 262 262 262 262 262 262 262 263 263 263 262 262 262 262 262 262 261 261 261 261 261 260 260 260 259 259 259 258 258 257 256 256 256 255 255 254 254 254 253 253 253 252 252 252 251 251 250 249 248 248 250 253 254 254 253 251 253 253 252 253 254 255 255 256 256 256 255 253 253 252 252 253 254 255 256
259 260 260 260 260 261 261 261 261 261 261 261 261 261 262 262 262 262 262 262 262 262 262 262 262 262 261 261 260 260 260 259 259 259 259 259 259 258 257 256 256 256 256 255 255 255 254 254 253 253 252 252 252 251 251 250 250 250 249 250 253 254 254 255 255 255 255 253 254 255 255 256 256 256 255 254 252 251 251 252 253 254 254 254 254
259 259 259 260 260 260 260 260 260 260 261 261 261 262 262 262 262 262 262 262 261 261 261 262 261 261 261 261 260 260 259 259 259 259 259 259 258 258 257 256 256 255 255 255 254 254 254 253 253 252 252 252 252 251 250 250 249 249 251 253 254 255 255 255 255 255 256 256 256 256 256 256 255 255 253 252 251 250 252 253 253 253 253 253 253
Wind_Speed
9 9 8 8 9 10 9 8 8 7 8 9 10 9 8 9 9 9 8 7 7 7 7 7 7 7 7 6 7 7 7 6 5 6 7 6 5 6 5 6 7 5 6 5 4 4 4 5 4 4 3 4 3 3 3 3 3 2 2 2 2 1 3 3 6 11 6 3 6 5 7 6 6 5 11 11 9 7 8 9 10 10 9 9 10
9 8 8 8 9 9 9 7 9 8 9 9 9 9 9 8 9 8 8 6 7 8 8 6 7 7 8 6 6 7 7 7 6 6 7 7 6 5 6 7 7 6 6 6 4 4 4 5 5 5 4 4 3 3 2 2 2 2 2 2 1 2 2 3 6 6 12 5 5 4 3 5 11 5 8 13 15 12 11 10 9 8 8 8 10
6 7 8 8 9 8 9 8 8 10 10 8 9 9 8 8 8 10 8 7 4 7 8 7 7 7 7 7 7 6 6 6 5 6 6 7 7 6 6 7 8 7 7 5 4 3 4 4 4 4 3 4 3 3 3 3 2 2 2 1 2 2 2 3 6 6 9 12 4 6 6 6 6 11 9 8 10 10 12 12 11 10 9 9 10
5 6 7 7 8 8 9 8 9 9 10 8 9 7 8 8 6 8 8 7 8 5 7 8 8 7 8 7 6 6 6 5 5 5 7 8 8 8 7 6 6 7 7 6 4 4 4 5 4 4 3 4 3 3 2 2 1 1 1 1 1 2 2 2 3 6 7 12 8 6 7 8 6 5 8 6 6 10 10 11 10 11 12 10 10
5 6 7 8 7 9 8 8 9 8 8 7 8 8 8 7 7 9 8 8 7 8 6 6 8 7 8 8 7 7 7 7 8 7 6 6 8 8 7 7 6 6 5 5 4 4 5 6 4 4 3 4 2 3 2 2 1 2 2 2 2 3 2 3 4 4 9 11 13 8 6 6 6 5 6 11 13 11 11 11 10 11 12 9 7
4 7 7 9 8 8 8 7 8 8 8 7 8 8 8 7 8 7 8 9 7 7 9 6 7 8 8 8 9 8 7 6 8 8 8 7 7 7 7 7 7 6 6 6 6 5 5 5 4 4 3 4 3 2 1 2 2 2 3 3 3 3 3 3 3 4 6 8 9 14 10 9 10 6 3 5 9 12 13 14 12 8 11 14 11
5 6 7 7 8 7 7 7 8 7 7 8 7 7 7 7 8 8 6 9 9 8 6 8 6 10 9 8 8 8 7 7 7 7 7 8 8 8 9 8 8 7 6 6 5 4 4 4 3 3 3 3 3 3 3 3 3 3 3 3 4 3 5 4 5 6 7 9 9 8 10 8 6 12 11 9 8 7 10 12 17 14 12 12 16
7 7 7 6 7 7 6 6 7 7 7 7 7 7 7 7 7 7 7 8 8 9 10 10 8 8 7 7 6 6 7 7 6 7 7 8 8 9 8 8 8 7 6 5 4 4 4 4 4 4 4 3 3 3 3 3 3 3 3 3 3 4 5 5 5 6 6 7 8 10 9 10 10 8 8 8 10 8 5 8 13 14 13 14 13
6 6 6 7 6 6 6 5 6 8 8 8 8 8 7 7 7 7 6 7 6 6 7 9 9 7 6 6 6 5 6 7 7 8 9 8 9 10 8 8 8 8 6 5 4 3 3 4 4 4 5 6 7 6 6 5 3 3 4 3 4 4 5 5 5 6 6 6 7 7 9 9 7 9 12 11 10 12 12 9 10 12 12 12 13
7 6 7 6 6 6 7 7 7 7 8 8 8 8 8 8 8 8 7 7 7 7 8 7 7 8 8 6 5 5 5 4 7 9 7 9 9 9 8 7 7 7 7 6 4 3 4 4 4 8 7 7 7 7 7 7 6 3 2 3 4 4 5 5 6 6 6 7 6 8 10 10 9 7 9 10 9 9 12 12 13 14 12 12 11
6 7 7 6 7 7 7 7 8 8 8 8 8 9 9 8 8 8 8 8 9 8 9 8 7 6 7 7 7 5 5 5 11 10 12 12 10 9 9 7 6 6 5 6 6 5 4 4 4 4 5 5 4 5 5 5 5 5 6 7 6 5 4 5 6 6 6 7 7 7 8 11 10 8 8 10 9 9 10 9 11 11 11 13 18
7 6 7 8 8 8 7 8 8 8 8 9 9 8 8 9 9 9 9 9 8 8 9 8 7 6 6 6 6 6 6 8 11 12 12 12 10 9 8 8 6 6 6 6 5 5 4 4 3 3 3 3 2 1 3 4 5 6 7 7 8 8 8 6 6 6 6 7 7 6 7 9 11 9 9 10 11 12 11 11 10 11 13 12 13
8 8 7 8 8 8 8 9 8 8 8 8 8 8 9 9 9 10 10 8 8 9 8 8 7 6 7 8 7 6 6 10 12 13 13 13 13 9 7 6 7 7 6 6 5 5 4 4 3 2 2 3 2 1 2 2 3 7 8 8 8 8 8 9 9 7 6 7 8 9 7 8 12 10 8 11 11 12 11 10 8 11 11 13 13
7 8 7 8 8 8 8 8 8 8 7 8 8 9 9 9 8 7 8 8 9 9 8 8 7 7 7 7 7 6 6 10 13 13 13 13 13 9 6 7 7 7 6 5 5 4 4 3 3 2 2 2 1 2 2 1 2 3 4 4 4 5 7 9 11 11 8 6 7 10 9 7 9 10 11 11 11 11 11 11 12 12 13 15 18
7 8 9 7 7 8 8 8 8 8 8 8 8 8 9 8 8 8 8 9 10 10 10 9 7 7 6 7 7 7 6 12 13 13 13 13 13 10 7 7 7 7 6 5 5 4 3 3 3 2 2 2 2 3 3 2 2 3 4 5 4 3 3 5 5 5 5 6 7 9 10 8 8 10 10 9 10 10 9 11 11 11 13 14 16
9 8 9 9 9 9 10 9 9 9 9 9 9 9 9 9 10 8 8 7 6 7 6 6 8 8 6 7 8 8 7 13 13 13 14 13 13 7 7 6 5 6 5 5 4 3 3 3 3 2 1 1 4 7 6 3 2 4 5 4 3 3 5 7 10 8 7 7 7 8 8 11 14 12 13 12 10 9 10 10 9 9 11 11 13
10 10 10 10 10 10 10 11 10 10 10 10 10 10 10 9 8 7 9 8 9 8 8 7 6 8 8 7 9 8 7 11 13 13 13 14 9 7 6 6 5 5 5 4 4 3 3 3 2 1 1 2 4 7 7 6 2 3 3 3 4 5 5 6 6 9 13 14 15 17 17 17 18 18 18 19 14 12 9 9 9 10 12 14 12
10 11 11 11 10 10 10 11 11 11 11 12 11 9 7 6 8 7 10 11 9 8 8 7 6 5 7 7 7 9 7 10 13 12 13 12 9 7 6 7 5 4 5 4 3 3 3 4 3 1 2 3 6 7 7 4 2 3 2 4 4 4 4 4 4 5 11 12 13 14 14 15 16 17 17 17 16 13 9 10 11 10 12 11 14
12 12 11 10 9 9 9 9 10 11 11 10 10 11 10 10 7 7 7 7 8 8 7 8 7 5 4 6 8 9 8 10 13 13 13 13 8 5 6 6 7 4 4 3 2 2 1 2 2 2 2 3 6 6 6 4 1 1 3 4 5 3 4 4 4 5 4 4 5 5 6 8 8 7 8 15 14 12 9 10 8 9 12 13 13
6 5 6 8 7 8 7 9 9 10 10 8 8 8 8 8 9 8 7 7 9 7 7 7 9 6 5 6 6 6 8 7 10 14 13 13 11 6 5 7 6 6 4 4 3 1 1 1 2 3 4 5 6 6 6 6 1 1 3 3 4 6 4 3 4 6 5 5 5 4 5 5 5 7 6 6 7 6 8 6 7 8 10 12 12
6 6 7 7 7 7 6 7 9 7 6 8 8 7 7 9 9 9 10 8 8 8 8 7 8 7 5 5 5 4 5 7 9 14 14 13 13 9 5 5 5 6 6 6 4 2 0 0 2 5 5 5 5 5 5 4 4 1 3 2 3 8 8 4 6 9 5 5 5 6 6 6 6 6 6 6 6 4 4 6 6 7 8 9 12
6 6 7 7 7 7 7 6 6 7 7 8 9 8 6 7 8 9 8 9 10 10 8 7 7 7 5 4 5 5 3 4 7 11 13 13 11 10 6 5 6 6 7 5 3 2 1 1 1 4 6 5 5 5 4 3 4 2 4 8 11 12 7 4 5 5 5 6 6 7 7 8 9 8 8 7 6 7 7 7 7 5 5 7 10
7 7 7 7 7 7 6 8 8 7 8 8 10 10 8 9 8 8 10 10 10 10 9 8 8 7 6 4 3 4 4 4 6 7 11 12 12 10 10 7 10 5 6 6 4 2 2 3 3 6 6 4 4 3 2 4 5 4 8 10 11 12 9 5 6 6 6 7 6 7 8 8 9 10 9 10 10 11 10 10 9 9 10 9 8
7 7 7 7 7 7 7 7 7 7 8 9 9 10 10 8 8 8 9 10 10 9 7 8 7 8 8 6 3 3 3 4 6 8 8 11 10 10 9 10 9 5 5 4 3 2 2 2 3 6 4 3 2 1 2 3 4 7 9 10 11 10 6 6 5 6 7 6 7 7 7 7 7 9 9 10 11 12 12 11 12 13 12 12 11
8 7 7 7 7 6 6 6 7 7 7 9 10 9 9 9 9 7 8 8 8 9 8 8 9 8 8 6 7 6 5 5 4 7 10 9 10 10 9 9 9 9 6 4 4 2 4 5 5 3 2 1 1 3 5 6 7 7 9 10 9 5 5 5 6 6 6 6 7 6 6 6 8 9 11 12 12 11 11 12 12 11 10 10 10
8 8 7 7 7 7 8 6 6 6 7 6 7 8 11 10 9 9 8 8 8 9 9 8 7 8 7 8 8 7 7 5 4 5 6 7 7 9 9 8 8 8 7 4 4 5 5 4 4 3 2 2 3 2 2 2 5 7 9 8 4 5 4 5 5 5 5 6 7 7 7 7 7 8 9 9 9 10 11 13 13 14 14 15 16
8 7 8 7 7 7 9 8 7 6 5 4 4 5 6 7 8 9 9 9 9 7 8 8 8 7 8 11 9 7 5 5 5 5 5 5 4 5 5 5 7 7 5 3 3 3 2 2 3 4 4 5 4 3 3 4 3 3 4 4 4 5 4 3 4 4 5 5 6 6 7 7 7 8 8 8 9 9 8 10 11 11 11 12 13
8 7 7 6 6 6 6 7 8 6 6 6 7 6 6 6 8 10 11 11 11 9 9 10 10 10 10 10 9 7 6 6 6 8 8 7 6 5 5 4 4 5 4 4 4 4 2 4 4 4 3 2 2 2 1 1 1 2 4 4 4 5 5 5 5 3 3 5 6 6 6 6 7 8 8 8 8 8 8 9 9 11 11 12 12
5 5 5 6 6 5 5 6 6 7 6 5 3 3 7 8 7 4 0 1 4 8 11 10 9 8 9 11 11 8 6 8 9 10 8 10 9 7 6 5 5 4 5 8 7 4 4 4 3 2 2 2 1 1 0 1 1 2 3 4 4 5 3 2 4 4 4 5 6 6 7 7 8 8 8 9 8 9 9 9 9 9 11 9 10
6 6 6 6 5 6 5 6 6 6 7 7 5 2 4 2 1 4 4 2 3 1 3 6 5 7 8 7 8 9 12 10 12 17 16 16 15 13 10 10 9 7 7 13 8 5 3 6 5 5 4 3 2 1 0 1 1 2 3 4 4 4 3 3 4 4 5 5 6 6 7 7 8 8 9 10 10 8 8 10 10 10 10 11 12
5 5 6 6 7 7 7 7 6 6 6 6 5 6 3 1 3 3 5 5 5 6 6 6 9 10 8 8 6 2 4 13 18 17 17 16 14 13 12 11 12 13 13 9 4 6 5 6 5 4 3 3 3 2 1 1 0 1 2 3 4 3 4 4 3 4 6 5 6 5 6 7 8 8 9 10 11 11 10 8 7 8 9 10 12
7 7 7 5 6 5 5 5 5 6 5 5 6 6 6 5 2 4 7 7 8 8 9 10 11 13 12 9 8 3 10 16 18 18 16 16 13 12 12 12 12 12 13 12 6 5 6 7 7 6 5 3 2 2 1 1 1 1 2 3 4 3 3 4 4 4 5 5 6 6 6 6 7 7 8 9 11 10 10 11 10 10 11 10 10
4 4 4 4 4 5 5 6 6 6 7 7 7 6 7 8 8 6 4 6 8 8 9 10 12 12 12 12 12 9 12 15 17 17 16 15 14 13 13 13 12 13 12 7 6 7 7 7 7 6 5 5 3 2 2 2 1 1 3 4 4 3 3 4 4 4 5 6 5 5 6 6 6 7 7 8 9 10 10 10 10 10 9 11 12
1 3 5 5 6 5 5 5 5 5 4 4 5 6 6 6 5 6 7 5 4 5 7 10 11 12 12 13 13 13 15 16 16 16 16 15 14 14 13 9 12 12 10 8 7 8 7 7 6 6 6 4 4 3 1 1 1 2 3 5 4 4 3 3 3 4 4 5 5 5 6 6 6 6 7 7 7 7 8 9 10 11 11 10 12
1 4 6 5 5 5 4 4 4 4 4 5 5 6 6 5 5 7 9 10 9 9 7 7 10 12 10 10 13 15 15 15 15 15 15 15 15 15 13 7 7 3 3 4 7 7 8 8 7 6 6 5 4 3 3 2 2 3 4 4 4 3 2 2 3 4 4 4 5 5 6 6 5 6 6 8 9 9 9 9 9 9 11 12 12
2 3 3 4 4 4 4 5 4 5 5 5 5 5 4 5 6 6 5 4 5 5 4 5 3 6 12 11 14 15 16 16 15 16 15 16 16 17 9 8 7 7 6 6 6 7 6 6 6 6 5 4 4 3 4 3 4 5 4 4 4 2 2 3 5 4 3 4 5 6 6 5 5 5 5 6 7 8 9 9 10 10 11 11 11
2 2 3 2 3 3 3 3 3 4 3 3 5 4 4 4 4 3 4 5 5 5 5 4 3 2 3 5 10 15 16 15 15 15 16 16 18 11 7 8 9 7 7 7 7 6 7 7 6 6 5 4 4 4 4 4 4 4 4 4 3 3 3 3 4 3 3 4 5 5 4 5 5 5 5 7 8 7 8 9 9 11 11 14 15
2 2 1 2 2 2 2 2 2 3 3 3 4 5 5 5 5 6 6 7 6 6 6 6 6 8 9 8 7 6 9 13 14 12 13 13 10 7 7 6 6 7 8 6 7 7 7 6 6 6 4 4 5 4 4 5 4 4 6 4 3 3 5 4 6 4 4 4 4 4 4 5 5 5 5 5 7 8 8 9 9 11 11 12 10
1 2 3 3 3 3 4 3 3 3 4 4 5 5 6 6 6 6 7 6 6 6 7 7 8 9 9 6 7 6 7 7 9 10 9 7 5 6 6 6 6 6 5 6 6 6 6 6 6 4 5 4 6 4 5 6 4 5 4 4 4 3 3 3 3 4 4 5 4 4 4 5 5 5 5 5 7 7 8 9 9 9 11 11 10
2 2 2 3 3 3 4 5 5 5 5 5 6 5 6 7 8 9 7 7 8 8 8 9 9 10 7 8 9 8 11 11 9 8 8 7 7 6 6 7 6 6 7 6 7 6 6 6 7 6 6 4 5 5 4 5 5 5 4 5 4 5 5 4 4 4 4 4 4 5 5 5 5 5 5 5 5 6 7 9 9 9 9 10 11
3 2 3 3 4 3 3 4 5 6 5 6 6 6 8 7 7 6 7 8 9 8 9 9 9 7 6 9 12 13 11 10 9 8 8 9 8 8 7 7 6 6 6 6 6 6 6 6 5 5 4 5 5 5 5 5 5 4 5 5 4 5 4 4 5 4 5 4 4 5 5 5 5 5 6 5 6 6 6 7 8 8 9 9 10
3 2 2 3 3 3 4 5 5 5 5 6 6 7 7 7 6 7 8 8 8 8 8 8 7 5 6 12 15 17 10 7 6 6 7 7 7 7 7 8 6 6 6 6 6 6 6 5 5 5 5 5 5 5 5 5 5 6 6 5 5 5 5 6 4 4 3 4 4 5 4 5 6 6 7 6 5 5 6 6 7 8 9 9 10
2 3 3 3 4 5 6 5 4 5 5 6 6 5 6 6 7 7 7 7 8 8 8 8 6 5 6 11 13 16 10 7 6 8 7 7 7 6 7 7 7 7 7 7 6 6 6 6 5 5 5 6 6 6 6 6 6 6 5 5 6 6 6 5 4 5 4 4 4 4 4 5 5 5 5 5 5 5 5 6 7 7 8 9 9
3 3 3 3 4 4 4 4 5 5 5 6 6 6 6 6 6 6 7 7 7 7 8 7 5 5 6 6 9 10 9 8 7 8 9 7 8 8 7 6 5 5 6 6 6 5 6 6 5 5 4 4 5 4 6 6 6 5 5 6 6 6 6 5 5 5 4 4 4 4 4 4 5 5 6 7 5 5 6 5 7 8 9 8 9
3 3 4 4 4 4 4 4 5 5 5 5 5 5 5 6 6 6 6 7 6 6 6 5 5 5 6 7 8 9 9 8 6 6 7 7 8 7 6 6 5 6 7 8 7 5 5 6 5 4 5 5 5 6 6 6 5 6 6 6 6 7 7 6 6 5 4 4 4 4 4 4 5 5 6 6 5 4 5 5 6 9 10 9 8
3 3 4 4 4 5 4 4 5 5 5 5 6 6 5 6 6 6 6 6 6 7 7 6 6 6 7 10 9 7 8 6 6 7 4 6 7 6 6 6 6 8 9 8 7 6 5 6 5 6 6 6 6 6 6 5 6 5 6 6 7 7 7 6 5 4 5 4 5 4 4 4 5 6 8 7 5 5 5 6 6 6 7 9 9
2 3 3 4 4 4 4 4 4 5 5 6 6 6 6 6 6 6 7 7 7 5 8 8 8 9 8 9 11 12 8 8 8 7 8 7 7 7 6 6 7 6 4 5 6 6 6 6 5 6 6 6 6 6 6 6 5 6 5 6 6 6 6 6 6 5 5 5 5 4 4 4 5 5 8 7 6 5 4 5 6 7 8 8 9
2 3 3 4 4 4 5 4 5 6 6 6 6 6 6 6 6 6 6 7 8 7 8 7 7 7 6 9 8 9 10 8 8 7 8 8 8 6 6 7 8 6 5 6 6 5 6 6 6 6 6 6 6 6 6 6 5 6 5 6 6 6 7 7 6 5 5 5 5 5 5 6 6 6 6 7 6 4 5 6 6 6 7 8 8
3 3 4 4 4 5 5 5 5 6 6 6 6 7 7 7 7 7 7 9 10 10 9 10 9 8 10 10 8 10 10 8 11 10 9 8 8 7 8 8 8 7 7 7 7 7 7 6 6 6 6 6 6 6 6 5 5 5 5 5 7 9 11 10 7 6 7 6 5 6 6 6 7 7 7 6 6 4 5 6 6 6 7 7 7
3 3 4 4 4 5 5 5 5 5 5 6 6 7 7 7 7 8 9 9 9 9 8 9 8 10 10 9 6 6 8 8 9 8 8 8 7 7 8 8 8 8 8 8 8 7 6 6 6 6 6 6 6 6 6 6 5 5 5 6 9 11 10 11 11 10 7 5 6 5 6 6 7 6 6 6 5 5 6 6 6 7 7 7 7
3 3 4 4 4 4 4 5 5 6 5 6 6 7 7 7 7 8 9 10 11 10 10 9 9 9 9 10 7 9 10 10 9 9 8 9 9 8 7 8 7 6 6 6 8 7 7 7 7 7 6 6 6 6 6 6 5 5 7 10 12 12 11 10 7 8 10 8 5 6 5 5 6 7 6 5 4 5 8 7 7 6 6 6 6
Wind_Direction
185 189 176 180 169 174 170 165 163 158 157 164 160 159 154 150 150 144 133 143 139 137 135 135 133 133 133 133 132 132 126 109 123 121 115 113 107 116 117 106 107 104 104 87 68 80 84 85 54 34 28 56 28 28 28 21 27 46 46 49 8 332 324 294 278 291 287 232 295 311 315 323 325 354 324 324 319 316 316 318 318 322 320 315 311
188 176 178 169 172 165 162 159 155 154 155 156 151 150 149 147 138 135 137 145 143 133 129 130 134 138 134 131 133 131 125 126 134 127 127 123 119 115 112 112 114 100 89 89 70 76 78 89 68 51 44 78 55 46 47 42 55 38 31 15 338 336 328 316 291 288 299 306 297 297 301 358 320 340 333 325 323 325 327 324 317 312 315 313 311
177 169 166 165 164 157 151 152 149 152 148 149 147 145 140 134 142 136 135 135 120 130 137 140 140 137 133 139 134 127 125 125 131 126 127 128 125 117 118 117 105 111 99 100 105 119 107 101 90 79 72 74 54 39 49 47 49 39 12 342 354 328 321 317 317 301 304 306 303 316 338 338 321 318 322 312 307 315 319 323 323 319 316 315 311
165 159 155 150 147 144 147 145 145 147 147 147 143 140 136 137 138 128 132 130 126 121 136 138 140 139 135 130 125 126 126 126 124 125 135 139 136 130 121 111 111 108 119 129 131 120 114 97 74 78 76 73 45 37 31 59 33 328 307 310 328 314 309 300 286 299 303 310 318 343 320 321 306 296 298 294 301 317 319 314 316 315 314 316 317
156 151 147 140 144 142 142 146 143 142 138 138 138 136 136 133 131 131 130 128 134 134 134 137 135 140 141 139 136 137 138 141 135 131 131 133 131 124 118 117 117 118 121 122 114 104 84 87 91 86 100 99 71 61 38 32 8 16 7 329 335 310 307 304 299 294 309 308 310 314 312 294 292 291 306 330 329 325 319 316 318 317 310 301 287
148 140 142 140 143 143 143 142 141 138 135 133 138 139 137 136 134 132 136 135 137 142 141 145 145 140 128 113 102 108 122 135 141 145 143 138 123 118 119 113 112 112 109 93 90 89 104 113 123 131 136 103 86 79 63 38 18 19 11 352 340 327 316 312 305 308 307 301 305 311 321 329 323 319 325 324 324 325 325 322 319 317 320 320 319
145 142 147 145 143 146 145 141 135 133 135 135 134 136 136 136 135 136 137 137 138 125 129 126 131 114 105 117 144 150 151 149 148 143 137 133 125 118 113 100 94 89 81 91 96 110 119 129 133 125 101 89 79 56 35 20 30 8 8 355 337 343 334 330 331 323 313 306 303 295 305 315 325 319 331 334 321 316 320 328 325 327 324 319 316
154 151 146 142 142 141 138 133 132 132 130 132 134 131 127 126 124 126 131 133 136 138 137 119 106 88 120 115 135 146 148 148 145 139 135 132 122 106 103 107 102 95 97 93 96 104 109 107 98 87 81 78 71 48 49 35 21 15 351 358 342 343 334 327 325 319 311 309 307 312 315 316 321 311 310 323 326 323 341 326 313 316 319 317 311
152 147 143 145 143 135 129 126 124 128 132 131 131 130 127 123 122 124 124 119 119 128 128 122 124 127 129 140 147 153 147 146 145 141 130 118 110 110 107 109 113 115 111 106 107 110 103 91 83 77 71 59 46 40 37 29 38 17 345 353 337 337 328 326 319 310 304 302 301 302 308 311 312 322 327 336 339 323 320 320 302 304 306 306 306
150 150 150 145 137 138 134 133 135 135 137 138 135 132 129 131 130 127 123 122 125 128 120 115 124 136 138 138 136 136 137 137 141 135 128 128 120 111 107 111 121 127 128 126 119 107 97 86 71 68 62 54 41 38 34 21 18 10 344 337 333 331 323 315 310 304 301 305 306 317 315 309 319 325 320 313 311 308 315 323 318 317 315 307 300
155 154 151 143 143 140 140 141 141 145 142 135 137 139 140 140 136 131 131 136 135 130 123 126 132 140 141 140 137 135 132 133 130 120 118 113 114 117 121 124 125 129 135 130 121 108 89 83 77 67 66 52 40 32 14 8 10 358 350 341 334 325 315 309 296 298 303 301 306 307 301 304 311 322 313 313 313 314 311 311 311 313 318 323 317
159 160 148 148 150 151 149 146 148 147 146 149 149 145 140 138 137 137 137 137 134 125 128 135 137 140 134 132 131 133 131 133 126 122 118 117 118 120 124 128 133 133 132 120 115 111 104 96 89 88 74 65 64 12 327 326 3 356 347 338 329 320 311 303 306 307 307 306 305 302 305 302 309 318 319 324 321 317 315 315 315 318 317 313 303
160 154 154 154 157 155 153 155 154 154 157 149 144 143 143 140 141 146 147 143 132 134 138 137 143 141 139 136 132 131 124 129 124 122 123 124 124 118 121 127 125 130 119 112 111 112 113 107 102 87 78 49 30 322 278 265 335 352 343 335 326 316 311 310 310 305 302 301 301 300 299 305 308 311 321 315 312 304 312 315 322 315 307 300 297
156 153 154 162 161 159 158 156 154 154 147 146 147 148 150 151 147 141 135 135 135 134 139 141 141 143 143 137 128 127 122 126 122 123 125 125 123 118 117 116 113 108 105 104 104 99 100 102 93 73 52 34 349 298 281 314 342 349 332 312 290 304 318 319 311 303 299 290 290 292 297 299 297 305 310 309 309 312 317 314 315 309 310 304 302
159 160 164 165 161 159 158 157 154 152 152 151 152 153 150 143 145 149 147 145 147 150 151 148 146 141 140 134 126 121 126 123 119 120 121 121 119 114 112 106 97 91 90 94 95 95 95 92 84 83 50 3 301 344 336 336 347 337 323 310 312 333 321 294 280 269 267 271 276 281 292 302 300 302 307 314 311 307 302 300 305 305 296 291 287
168 166 168 169 169 167 163 160 156 157 157 157 157 156 153 155 151 149 137 127 121 124 121 131 142 144 143 136 125 121 123 122 120 120 120 118 115 109 112 106 101 102 92 92 93 90 91 84 79 65 31 329 315 345 341 351 356 326 308 308 319 306 278 275 275 291 296 295 292 299 305 304 308 312 314 314 312 307 306 309 306 296 297 294 296
178 176 175 173 173 171 168 162 162 164 163 160 162 159 156 154 151 147 136 140 142 146 147 146 147 144 144 140 128 124 123 123 120 120 119 119 112 109 104 107 106 107 95 87 92 81 75 75 73 54 336 296 308 333 334 342 326 292 300 299 288 277 272 258 276 315 318 315 311 307 305 309 311 312 315 317 316 320 322 314 309 312 306 308 305
182 180 182 178 173 170 170 167 164 165 167 169 164 158 148 142 151 155 148 148 147 149 141 134 139 144 143 141 138 131 129 127 124 122 121 122 120 119 121 117 111 100 96 87 84 72 60 60 22 356 295 284 316 330 326 333 281 275 283 286 279 271 284 345 346 329 320 314 309 307 307 306 311 318 320 320 323 329 327 313 312 309 309 308 306
185 186 181 170 167 167 166 164 165 167 170 169 163 159 161 157 148 140 137 133 134 135 139 136 134 128 130 132 133 128 128 132 130 125 120 120 115 111 123 119 116 114 113 104 87 94 26 23 322 290 289 308 322 320 319 319 255 281 278 282 290 311 332 350 335 325 307 292 290 290 289 301 312 310 308 318 319 317 306 302 310 316 310 307 304
175 153 145 154 156 158 161 164 167 169 168 155 152 153 143 141 149 141 133 133 136 138 137 138 136 134 134 131 130 130 130 132 135 130 125 125 127 123 127 123 134 144 140 128 99 29 106 309 309 287 311 316 316 313 312 317 295 261 289 291 316 325 340 350 332 320 307 294 289 290 300 309 313 308 300 297 297 284 310 313 316 302 293 297 300
137 144 141 145 152 156 156 165 163 162 157 152 143 140 149 149 144 141 138 135 133 135 137 135 128 129 128 126 123 118 128 134 138 135 132 134 138 137 131 127 141 144 144 133 142 136 48 257 255 274 295 308 304 305 304 308 314 9 316 324 329 328 345 349 322 320 305 312 318 324 328 331 327 317 310 304 298 308 311 308 280 280 293 303 306
135 139 146 148 146 148 151 146 147 147 139 141 143 144 141 140 144 141 141 143 143 140 140 137 134 128 122 120 121 125 115 120 135 143 140 139 141 140 133 146 157 152 139 134 129 113 172 231 258 277 290 294 292 294 301 304 351 19 335 349 345 346 354 332 311 315 325 334 333 335 340 339 334 331 322 317 321 322 316 309 304 286 291 297 300
136 137 138 142 145 147 147 148 148 147 149 153 150 147 148 145 145 145 144 144 144 144 147 145 140 138 132 127 122 115 129 115 125 141 150 149 146 143 145 151 156 147 133 130 134 137 192 231 260 274 278 279 285 288 295 11 19 354 359 357 356 354 351 326 328 338 338 334 338 340 341 337 333 330 328 334 331 329 325 321 316 316 310 302 289
130 133 139 142 142 144 147 145 144 150 153 153 151 150 154 151 149 154 155 151 151 150 154 151 146 151 153 146 137 134 132 129 139 148 154 155 152 150 156 163 153 137 126 127 121 163 196 227 258 263 262 269 282 298 12 18 15 11 9 4 2 355 333 337 344 342 334 330 338 338 335 330 323 325 334 334 329 326 321 319 320 319 315 315 312
136 140 146 148 148 145 143 151 155 157 163 160 157 157 152 155 153 162 156 158 159 160 163 165 165 164 160 162 158 159 151 126 146 162 163 163 156 158 166 164 146 133 120 120 131 177 215 229 236 233 235 267 63 47 25 20 19 20 11 7 360 336 335 346 344 338 333 336 333 325 319 327 326 325 326 324 320 317 317 318 316 311 301 294 289
144 149 148 151 152 149 147 146 153 161 164 172 172 166 161 164 160 160 166 169 169 165 165 168 169 167 171 156 149 157 159 146 161 170 171 166 162 168 172 159 139 130 131 134 188 200 212 200 180 143 102 90 57 37 22 7 25 24 13 1 342 334 333 352 335 333 325 329 325 322 318 316 320 324 321 320 321 324 324 322 324 326 333 332 330
146 150 154 150 149 158 159 161 159 159 162 153 148 154 160 162 161 166 173 170 171 169 167 172 169 172 173 157 142 156 164 171 176 181 174 162 166 173 169 155 142 139 118 121 119 87 136 146 142 135 133 120 102 88 67 30 16 10 1 344 340 326 326 343 328 314 325 319 314 310 309 311 314 321 326 327 321 318 320 315 315 315 324 323 319
155 158 153 150 156 162 160 151 153 157 166 165 159 163 179 179 175 179 180 179 172 179 176 180 182 180 176 167 164 165 183 187 191 185 178 167 175 173 172 152 128 116 135 126 117 119 96 110 96 69 55 41 64 14 351 7 4 47 358 337 329 315 323 333 323 312 312 314 302 301 306 320 325 324 320 321 315 314 318 316 316 315 320 321 321
131 136 141 144 155 158 154 161 165 162 164 170 170 172 179 185 186 188 313 350 217 190 183 189 194 186 169 166 164 181 189 205 203 183 176 173 177 171 172 160 145 144 171 149 106 89 101 100 116 116 144 164 174 169 304 54 7 22 357 320 313 312 303 310 300 308 314 313 313 314 318 323 323 322 318 318 319 321 321 317 316 313 312 314 311
143 153 155 159 158 155 156 164 166 166 168 169 154 99 34 110 143 181 193 176 137 60 198 199 178 161 166 187 183 180 199 197 171 179 182 183 182 174 168 166 171 166 192 161 133 130 142 153 174 165 176 168 167 147 128 72 7 354 333 325 320 298 305 312 297 309 317 315 309 315 320 327 323 326 325 321 318 319 323 326 317 317 316 321 319
151 158 163 178 176 174 169 170 176 167 169 164 165 159 128 80 161 171 173 176 178 179 169 160 157 173 170 169 191 193 152 157 172 177 181 183 178 174 171 176 179 179 177 138 106 145 160 169 182 180 181 171 166 168 156 134 171 322 300 295 291 295 303 302 296 317 318 311 309 310 319 324 321 324 325 323 321 321 322 320 311 310 312 316 316
173 182 184 175 173 176 171 165 163 166 171 170 174 171 169 158 139 164 163 173 176 172 173 173 173 172 176 165 155 157 164 166 171 176 178 177 174 173 174 176 182 176 181 163 144 175 165 175 178 186 177 167 180 163 166 159 191 218 259 284 282 279 293 291 305 330 308 303 301 314 321 319 316 318 320 319 320 318 320 322 325 324 318 314 309
170 167 166 162 165 167 170 175 179 180 178 179 186 183 182 183 180 173 168 176 173 171 169 165 168 170 170 172 171 165 167 173 174 176 176 175 173 172 174 177 177 179 167 152 160 181 183 184 183 188 176 181 192 174 199 189 189 227 240 247 262 269 279 280 323 309 296 295 307 313 314 314 313 316 315 315 321 319 321 319 319 318 316 316 315
136 151 169 172 170 183 186 186 184 195 194 197 201 197 205 200 189 166 158 158 181 200 192 180 172 172 172 172 174 175 176 175 177 176 177 176 176 173 172 179 176 178 172 179 171 183 182 186 193 189 192 181 180 177 182 194 197 222 250 255 253 258 268 294 322 298 288 296 306 307 308 304 313 319 317 317 312 308 310 315 320 322 322 322 316
124 133 153 159 177 186 187 187 189 188 191 198 201 203 206 204 182 183 187 187 187 187 185 187 190 183 183 183 185 185 183 182 181 179 177 180 176 173 168 161 165 147 135 147 180 180 183 192 191 200 181 179 188 176 192 198 212 229 238 249 258 260 289 308 299 289 288 303 309 301 295 305 310 310 316 318 321 323 320 320 319 317 315 315 315
149 150 152 172 176 180 179 184 183 190 198 203 200 209 202 197 200 208 205 200 188 175 177 184 175 200 192 193 194 193 191 189 184 182 182 184 182 174 161 189 185 198 194 195 185 202 189 193 182 200 190 186 183 188 196 198 216 224 231 232 251 265 283 288 288 280 292 310 296 298 303 298 299 304 305 301 306 311 313 315 315 316 314 312 314
179 178 167 170 180 178 176 172 184 186 186 175 184 206 211 215 224 225 209 200 199 197 179 154 137 252 258 215 199 197 194 190 189 187 189 190 190 182 183 184 197 192 202 201 195 194 197 208 191 191 195 192 200 196 199 214 219 223 241 237 233 248 252 247 259 278 306 293 288 289 292 295 298 300 310 312 312 311 310 312 313 314 315 315 319
183 188 167 136 138 153 153 176 171 170 176 176 191 198 209 209 211 211 212 212 206 189 177 189 196 194 193 201 185 184 190 192 193 195 196 196 196 174 182 189 190 192 203 201 199 196 205 207 193 190 208 194 207 210 206 227 224 223 226 240 240 227 265 276 289 285 274 274 283 289 293 295 294 299 306 307 309 313 315 315 315 316 317 318 319
182 177 174 161 161 169 174 165 170 178 198 195 204 199 214 209 212 214 218 215 205 199 202 196 202 207 207 173 170 172 163 190 193 198 190 189 168 174 177 194 198 205 200 199 200 202 200 206 209 195 198 198 210 212 209 229 226 229 229 228 242 244 249 253 259 257 267 270 284 287 289 291 292 294 295 299 302 305 308 309 313 313 316 317 317
200 221 207 184 185 180 175 185 187 193 205 199 214 204 217 215 217 217 214 210 213 211 206 205 211 215 195 166 180 176 189 199 199 191 184 189 188 188 187 193 198 198 199 208 206 204 202 209 197 194 204 205 207 215 219 219 224 233 229 230 232 247 244 235 244 252 261 265 276 282 285 289 292 293 285 278 286 302 308 311 311 311 309 309 310
205 198 203 217 196 197 189 199 208 215 208 211 208 208 219 221 222 222 219 222 222 219 217 218 221 210 184 193 190 189 196 202 197 190 195 195 192 192 201 202 195 199 210 211 213 207 208 209 204 198 202 206 209 209 221 219 224 230 230 237 240 246 244 239 238 241 250 259 268 272 277 286 294 296 293 287 297 305 303 303 304 304 305 305 307
187 199 209 225 208 201 212 225 223 221 218 217 218 219 223 220 222 221 224 225 228 226 229 229 223 203 188 189 194 200 205 215 195 196 196 190 196 205 201 191 196 198 202 209 205 207 211 214 211 194 201 211 206 217 212 220 219 221 228 232 234 242 244 240 234 238 243 249 257 263 273 286 294 293 294 303 302 296 299 302 301 304 306 309 312
190 206 216 208 208 214 222 231 216 221 226 227 233 230 228 225 226 225 230 232 229 227 231 231 222 180 194 197 198 203 213 212 205 204 197 198 199 200 200 202 202 200 203 207 201 192 197 205 213 210 207 211 207 207 208 215 207 216 220 227 234 237 243 243 243 243 239 243 253 266 275 282 289 288 293 292 292 290 292 301 305 305 305 306 306
208 227 226 229 232 239 236 227 229 226 225 232 232 229 226 232 234 231 232 236 232 231 230 231 212 190 195 194 199 205 213 207 205 194 188 196 195 198 189 191 193 190 212 218 211 191 192 201 213 222 221 223 221 222 221 216 202 205 214 222 235 238 235 235 235 235 232 237 253 265 270 278 284 291 292 292 286 288 296 304 309 309 307 306 309
205 216 228 239 240 237 248 236 236 240 239 235 239 236 230 226 231 234 232 237 240 236 234 229 209 198 197 202 204 207 210 205 197 194 200 190 172 180 174 183 185 194 205 214 207 195 193 201 204 215 233 230 218 224 227 222 208 207 205 209 221 237 238 234 235 230 219 227 247 261 270 274 279 282 281 277 278 283 297 302 305 310 310 308 309
215 226 227 237 240 242 240 240 236 235 238 237 241 243 236 229 234 234 234 235 232 224 212 205 194 195 184 186 205 213 212 199 180 181 196 187 175 179 175 189 184 192 203 199 188 198 205 195 198 209 222 231 227 226 227 222 216 211 212 211 218 228 232 231 229 225 227 225 239 244 255 262 266 267 275 282 288 287 286 292 297 294 296 301 301
236 238 247 249 251 254 252 245 240 239 237 238 237 241 239 235 232 233 233 231 230 222 195 200 189 199 188 186 190 196 195 202 190 192 195 191 190 187 197 190 155 195 208 200 176 195 201 201 204 210 219 226 230 234 229 222 215 216 214 216 220 231 236 232 226 225 226 228 225 231 241 252 262 267 275 281 283 278 280 287 291 295 298 300 296
238 247 254 251 259 255 257 248 248 246 241 242 241 242 240 241 237 236 234 229 218 204 201 199 205 196 194 205 186 202 195 205 204 206 187 188 188 190 176 175 187 203 195 193 200 203 204 209 211 212 218 225 227 233 233 226 224 217 219 219 221 222 227 227 227 229 223 223 219 226 232 244 249 255 263 270 274 275 289 289 294 290 294 297 295
240 242 251 249 247 250 250 250 250 248 246 248 247 246 243 241 240 238 231 212 203 200 198 201 203 196 193 205 209 197 198 205 187 185 188 196 177 188 172 177 182 187 182 199 200 197 199 208 215 213 217 222 225 228 234 231 229 226 226 222 223 228 231 234 235 220 226 216 218 220 232 239 249 257 262 267 272 275 276 278 281 284 290 292 296
240 246 248 253 254 256 258 258 257 259 258 251 249 253 250 247 245 237 227 225 217 207 208 215 223 200 205 213 213 207 191 198 200 194 199 191 196 162 176 183 194 187 195 200 197 193 193 211 214 220 220 224 225 229 228 230 230 229 230 227 233 239 243 250 255 252 246 219 225 233 236 246 250 257 260 259 258 266 272 272 272 275 282 289 290
255 256 254 258 258 266 266 265 262 262 258 254 255 253 255 254 254 244 227 230 219 225 221 224 205 206 207 198 203 186 193 195 200 200 199 195 186 178 187 185 207 206 212 204 197 199 191 186 184 205 221 223 226 229 227 227 227 225 233 239 243 247 253 254 247 246 247 243 228 231 237 247 258 262 260 260 262 261 261 265 268 272 280 281 287